Wind_Speed
22 22 19 18 18 17 18 18 20 22 24 25 23 22 19 18 18 18 18 16 15 12 11 9 7 7 7 6 4 2 3 5 5 6 6 4 8 12 15 15 16 17 19
28 24 21 20 19 18 18 18 19 22 24 25 24 21 20 17 17 16 15 14 14 12 10 8 5 4 4 5 4 4 4 5 5 5 8 13 4 2 7 11 16 18 16
30 26 22 21 20 19 20 19 17 18 21 25 24 21 19 17 16 14 13 12 12 10 9 8 6 4 3 4 3 4 4 5 6 6 8 9 15 11 9 7 12 15 15
29 26 25 22 21 22 20 18 15 14 16 19 18 18 18 15 13 12 11 11 9 8 9 8 7 5 5 5 3 2 3 6 6 4 6 11 13 15 17 13 16 14 17
28 26 24 24 21 23 22 25 18 12 14 17 17 15 14 14 12 10 10 11 10 9 8 8 7 7 6 4 6 11 12 7 3 1 6 9 11 13 17 21 12 15 16
27 24 23 23 25 26 28 24 24 16 13 15 15 14 12 13 11 10 10 10 10 10 8 8 8 7 6 6 7 8 3 3 0 3 2 9 13 15 13 12 13 24 19
27 24 22 24 24 25 25 27 26 22 11 13 14 15 14 13 11 10 11 11 9 10 9 8 7 6 5 4 4 5 4 4 6 4 4 8 12 15 15 12 17 19 13
27 24 21 21 20 22 23 20 20 20 14 13 14 15 13 13 11 9 10 10 9 7 7 7 6 5 4 4 6 4 3 5 8 4 1 6 9 12 13 16 17 16 18
23 18 16 16 15 15 20 20 22 19 15 15 14 14 11 11 10 7 9 10 9 7 7 8 8 7 7 6 6 6 5 4 8 7 2 3 11 10 7 11 14 17 20
22 19 17 15 14 16 17 18 19 17 17 14 13 11 12 10 11 9 8 9 8 7 7 7 8 10 7 6 7 6 3 6 5 5 5 4 9 11 9 9 11 15 19
19 19 18 17 15 13 14 14 14 13 14 14 12 10 11 12 13 11 8 7 7 7 8 8 8 8 5 6 7 7 9 7 9 9 8 6 8 8 14 11 11 11 13
22 20 20 17 14 12 12 14 12 12 13 13 11 9 10 13 12 10 10 7 6 6 7 7 8 7 7 9 9 11 11 8 2 5 4 6 9 11 14 13 11 10 11
24 21 19 17 16 14 15 12 10 11 13 12 11 10 12 11 11 9 8 6 9 9 8 8 7 8 8 8 8 10 4 4 3 1 6 5 6 11 15 12 12 11 11
25 25 23 21 16 15 14 12 10 9 11 12 12 11 14 10 9 8 7 6 8 8 8 8 7 7 8 6 10 8 1 2 4 3 3 3 5 11 12 12 13 12 10
25 27 27 23 19 17 14 12 10 9 10 12 12 11 13 10 10 7 7 6 6 8 9 8 8 7 9 8 8 5 3 3 4 4 1 4 10 12 9 12 10 8 7
25 25 25 21 18 16 14 13 10 9 10 10 11 12 14 11 9 7 7 6 6 9 9 6 5 8 9 8 5 4 4 3 3 1 1 5 9 12 10 10 10 9 7
26 23 23 20 19 17 16 11 11 9 10 10 12 12 10 10 9 8 6 5 5 7 8 9 7 7 4 10 7 6 5 2 2 3 3 7 9 10 9 8 7 6 6
23 23 21 21 19 18 16 13 12 10 12 14 10 9 8 9 10 6 5 5 6 6 6 6 6 4 9 7 5 4 3 2 3 3 5 6 7 8 8 6 5 4 6
25 23 21 20 19 18 14 14 12 12 15 15 10 8 7 7 8 7 6 5 6 5 6 4 4 3 2 6 4 7 3 5 4 4 4 4 5 5 6 7 6 6 6
24 22 21 18 16 14 13 14 13 15 15 14 11 9 8 8 8 7 7 8 8 5 5 6 1 2 1 4 5 3 5 5 5 4 5 5 5 5 6 7 7 8 8
23 23 21 20 18 17 17 17 16 17 16 15 12 9 11 7 7 8 6 6 9 5 4 5 3 1 2 4 2 4 5 4 3 4 4 6 7 8 7 8 9 8 9
26 24 23 23 21 20 20 20 18 18 16 14 11 12 8 9 9 9 8 9 8 6 5 6 6 4 1 7 2 1 2 1 1 3 5 8 8 9 10 10 10 9 10
26 26 25 24 22 20 19 19 16 16 11 12 12 12 10 10 11 11 9 9 8 8 7 6 5 3 3 4 4 2 1 2 2 4 5 6 4 8 12 12 12 12 12
28 26 24 23 22 22 21 23 20 19 15 13 13 11 9 11 10 10 9 9 6 6 7 6 5 3 2 3 2 2 2 2 1 2 3 7 7 7 10 14 14 15 16
27 28 24 23 24 24 26 24 22 15 14 13 13 10 14 11 10 10 9 10 7 7 5 5 4 3 3 4 3 3 2 3 1 1 1 2 7 10 11 14 15 17 16
21 23 25 26 27 25 27 25 24 18 14 15 12 10 14 13 11 12 9 10 9 8 7 6 5 4 3 5 5 4 2 1 1 2 0 3 3 5 8 15 16 14 13
Wind_Direction
168 160 160 145 139 135 136 137 138 143 153 156 150 147 145 145 149 151 152 155 150 150 138 133 131 110 93 86 96 131 152 154 145 128 106 105 139 145 141 145 140 137 136
161 160 160 151 146 141 138 141 141 142 147 153 157 152 150 153 155 155 157 152 159 161 153 161 158 122 95 96 104 90 109 137 143 121 153 153 156 151 156 155 151 143 141
160 158 160 156 150 146 144 142 141 147 146 151 158 158 155 153 152 153 146 156 171 168 172 187 179 163 139 128 108 95 102 116 135 125 140 161 180 170 174 207 171 150 145
161 160 161 159 154 147 143 137 137 143 148 154 159 162 159 160 165 160 159 164 177 170 181 178 180 179 158 156 121 94 150 129 127 128 116 154 179 173 178 204 188 170 152
164 165 163 164 159 152 145 149 148 161 157 155 158 158 161 165 168 168 169 169 171 171 174 163 169 159 160 164 136 109 105 119 108 231 227 146 165 178 187 204 185 174 165
166 167 166 168 168 164 159 153 154 159 178 162 158 163 165 160 156 157 162 170 159 156 167 157 156 161 173 174 163 177 173 266 358 24 227 183 166 172 181 200 183 163 173
168 170 170 175 175 164 161 163 161 163 189 164 160 157 155 157 148 163 158 159 154 156 151 148 162 170 178 193 180 181 206 247 273 352 165 144 174 183 184 195 187 182 168
170 175 180 182 178 169 163 160 169 166 177 165 161 157 154 154 157 172 155 153 149 166 149 162 151 164 184 228 259 234 234 252 269 253 102 213 195 182 180 178 174 181 183
177 181 181 186 179 182 171 173 173 181 172 167 161 163 164 157 160 149 164 152 152 162 166 171 169 191 207 222 237 254 263 239 263 269 293 185 179 181 172 172 179 181 183
180 181 182 186 177 165 169 177 175 170 164 165 166 165 168 154 155 182 173 158 164 169 187 190 194 220 228 236 243 235 261 276 260 241 283 199 192 199 187 171 179 178 187
183 181 180 181 181 185 171 166 162 166 168 170 170 166 174 182 179 189 176 175 175 187 202 210 220 240 253 253 261 260 276 321 250 246 265 199 180 165 173 182 169 170 185
183 184 183 187 191 187 175 164 172 175 182 186 185 200 202 191 182 192 183 186 192 202 216 230 245 255 266 277 289 284 276 290 326 224 224 206 202 177 183 184 176 171 185
190 191 191 191 187 194 188 190 203 198 191 190 206 213 206 191 187 189 188 198 207 213 227 239 260 265 269 286 286 319 274 226 293 233 190 166 199 193 192 197 196 181 187
193 198 194 194 208 210 212 216 205 192 182 187 190 197 203 191 187 183 205 220 204 213 232 250 260 295 295 307 323 343 14 221 271 311 205 194 189 185 189 180 173 183 198
202 204 204 209 217 214 214 215 215 207 199 199 196 192 190 198 187 194 198 219 226 231 239 249 257 289 309 308 326 344 349 324 289 306 249 174 166 169 169 171 181 186 194
207 208 209 210 211 209 208 210 211 212 195 190 184 185 182 202 196 201 228 232 241 230 224 238 266 292 306 321 335 329 318 331 354 93 217 175 174 175 169 173 188 196 195
210 210 208 205 209 207 204 203 206 194 188 173 165 165 202 204 211 208 219 242 224 229 231 248 267 290 312 311 309 317 309 331 95 130 188 169 180 190 183 181 189 193 186
213 212 214 210 203 211 200 198 198 185 175 166 177 200 209 207 189 212 216 226 226 228 230 244 261 267 319 333 348 337 287 196 150 133 184 175 183 188 188 184 180 175 193
217 213 217 211 207 208 191 194 195 184 179 180 206 213 217 218 214 199 191 197 194 216 234 221 210 283 359 7 27 18 11 152 150 158 177 181 189 193 192 187 177 197 218
219 218 219 216 209 201 191 196 196 191 192 202 208 225 228 217 208 205 214 235 210 217 252 242 262 226 306 59 56 37 53 146 164 173 197 208 210 208 214 212 199 203 212
213 212 212 205 200 195 191 188 200 206 206 213 221 218 187 203 204 209 219 206 190 224 264 201 218 237 195 213 73 72 62 78 189 215 199 219 216 226 217 222 219 210 216
206 206 204 203 198 198 200 194 196 199 210 223 229 206 210 200 212 208 205 205 203 214 211 217 218 169 121 199 209 114 15 346 254 226 222 217 226 224 229 230 225 222 220
200 201 200 199 198 200 199 189 189 190 206 223 216 208 210 203 198 202 205 211 209 218 219 220 216 196 197 221 208 172 120 231 310 241 229 242 254 247 233 233 224 229 229
199 202 200 196 199 200 192 186 188 192 200 213 212 216 213 196 198 201 216 215 217 223 226 218 214 200 185 234 190 196 198 141 180 337 260 254 243 271 234 230 231 231 234
194 201 198 199 200 198 194 195 197 201 215 211 223 226 191 191 199 207 225 220 211 201 207 226 229 260 265 269 239 184 148 89 120 106 316 351 255 253 238 232 235 236 236
186 190 198 199 201 198 198 199 203 204 209 218 215 212 194 205 216 219 230 218 220 234 239 247 244 273 285 277 275 256 289 25 184 136 62 265 259 258 260 236 227 225 230
Height
799 802 805 808 810 812 814 815 816 817 819 821 822 823 824 825 825 828 831 833 835 837 839 840 841 842 843 844 844 845 845 847 848 850 853 854 856 857 857 857 857 858 860
796 801 805 808 810 813 814 817 818 819 821 822 825 826 826 827 828 831 832 835 837 839 841 841 843 844 844 844 845 845 846 847 849 852 854 855 859 861 859 861 858 859 861
796 801 805 808 811 814 815 818 821 823 824 825 826 828 829 830 830 833 835 838 838 841 842 842 845 844 844 844 845 845 846 847 848 852 853 854 857 860 861 863 862 862 864
797 802 806 809 812 815 818 821 824 826 827 828 829 830 830 832 833 834 838 839 839 842 842 843 844 843 844 844 845 845 846 848 849 851 853 854 856 858 859 863 862 861 864
799 802 805 809 812 815 816 818 819 828 831 831 831 831 832 832 833 835 838 839 839 841 842 843 844 844 844 845 845 845 847 849 849 851 852 853 855 856 859 858 865 862 865
799 803 806 808 810 812 813 818 821 826 833 832 832 831 833 835 835 836 838 839 839 841 842 842 843 843 843 844 844 845 846 849 850 850 850 852 854 855 856 858 861 851 865
801 803 805 807 811 815 818 819 821 819 831 834 832 831 835 835 835 836 838 839 840 840 841 842 842 843 843 844 845 846 847 849 849 850 851 851 853 854 856 858 858 865 860
802 804 805 807 814 817 820 824 823 826 830 833 832 832 835 836 837 839 840 839 840 840 843 843 843 843 843 843 844 846 847 849 848 851 851 851 852 854 856 858 861 861 862
804 807 808 810 815 817 800 821 823 827 829 830 831 832 835 836 838 840 841 839 840 842 842 841 840 840 839 840 842 843 845 847 847 848 850 850 851 852 855 858 861 864 865
805 807 809 810 814 818 819 815 825 824 827 830 832 833 835 837 839 841 842 840 840 842 840 840 839 838 839 840 841 842 843 845 845 846 847 849 850 851 854 856 859 863 866
806 808 809 811 813 816 818 821 822 824 827 829 832 834 835 837 839 840 841 841 839 839 839 838 838 839 840 840 840 840 841 842 843 844 845 847 849 850 853 854 859 862 864
805 807 809 812 814 816 817 821 823 826 828 831 832 835 835 837 839 838 839 840 840 838 839 839 838 839 840 839 839 838 838 839 841 842 843 844 847 849 851 854 857 861 863
805 808 809 812 814 816 819 822 824 827 829 830 831 834 835 837 838 839 839 840 839 838 839 839 838 838 838 838 838 836 835 837 840 841 842 843 845 847 850 853 856 859 862
803 806 808 811 814 816 820 822 824 826 828 830 831 831 834 836 839 840 839 839 839 838 839 839 838 837 837 836 836 834 834 836 838 839 840 841 843 846 848 851 855 857 859
801 804 806 809 812 815 819 821 824 825 827 829 830 831 834 836 838 839 838 838 838 838 838 838 838 837 836 836 836 835 834 835 837 838 839 841 843 846 849 851 853 855 857
798 801 805 808 812 815 818 821 822 824 826 828 829 831 833 836 839 838 838 837 837 837 837 838 838 837 836 836 835 835 835 835 835 837 840 842 844 846 849 852 853 855 858
796 799 803 807 811 813 817 819 822 824 825 828 829 831 834 836 838 837 836 836 836 837 837 838 838 837 837 836 835 835 836 835 836 837 840 843 845 847 849 850 852 854 856
794 797 801 805 809 812 815 818 820 823 825 827 830 832 834 835 836 836 836 836 836 837 838 838 839 839 838 835 835 834 835 836 837 839 841 842 845 847 849 850 851 853 856
792 795 799 803 806 809 814 817 819 822 825 827 829 831 833 834 835 836 836 836 836 836 837 838 840 840 839 838 836 836 835 836 838 840 842 843 845 846 847 848 850 852 855
790 794 797 800 804 809 813 816 819 822 825 828 829 831 832 833 834 836 836 836 836 837 837 838 839 840 840 841 839 838 837 838 839 841 842 843 844 845 847 848 849 851 854
787 792 795 799 803 808 811 813 817 820 824 826 827 829 831 833 834 836 836 836 837 838 838 838 838 840 841 842 841 840 839 839 840 841 842 844 844 845 846 847 849 850 853
782 788 793 798 802 806 809 811 814 818 822 824 826 828 830 831 833 836 836 837 838 839 839 839 841 841 842 842 841 842 842 842 840 840 840 841 843 844 845 846 847 848 851
779 784 790 795 800 804 808 811 814 817 821 822 824 826 828 829 832 834 836 837 838 839 840 841 842 842 842 842 841 841 844 844 842 840 840 841 842 842 843 844 845 847 849
774 781 788 792 798 803 806 809 812 814 817 819 821 825 827 828 831 833 835 837 838 839 840 841 842 842 842 841 841 840 840 840 842 842 840 840 841 841 841 842 843 844 846
773 778 783 790 796 800 804 807 811 814 815 818 820 823 825 828 830 832 834 836 837 838 840 841 842 842 841 841 840 841 840 841 842 841 841 841 841 840 839 840 841 841 843
772 777 781 787 793 796 802 805 809 812 814 816 818 821 824 827 829 832 833 835 837 838 839 840 841 841 841 841 840 841 841 841 842 841 843 842 841 839 838 839 839 840 840